Location: Madrid
(40.4000°N, 3.6830°W)
Time: 15:17:23
(UTC+02:00)

ISS - Pass Details

Date: 13 March 2021
Orbit: 418 x 422 km, 51.6° (Epoch: 16 April)

Event Time Altitude Azimuth Distance (km) Brightness Sun altitude
Exits shadow 05:03:57 16° 102° (ESE) 1,169 -0.9 -28.0°
Drops below altitude 10° 05:04:47 10° 107° (ESE) 1,492 -0.4 -27.8°
Sets 05:06:56 0° 114° (ESE) 2,353 0.7 -27.5°
